{"data":{"norad_id":58126,"intl_designator":"2023-162J","name":"STARLINK-30767","alt_names":[],"object_type":"PAYLOAD","status":"ACTIVE","operator":null,"country":"US","launch_date":"2023-10-22","launch_site_code":"AFETR","launch_vehicle":null,"mission":null,"orbit_class":"UNKNOWN","rcs_meters":null,"size_class":null,"mass_kg":null,"dimensions":null,"purposes":["comms"],"wikipedia_slug":null,"has_3d_model":false,"image_url":null,"decayed_at":null,"tle_current":{"epoch":"2026-05-25T04:25:14.314944Z","epoch_age_seconds":69698,"freshness":"FRESH","line1":"1 58126U 23162J   26145.18419346  .00000187  00000+0  16323-4 0  9994","line2":"2 58126  43.0045  57.2744 0001448 274.1939  85.8747 15.27571074144042","mean_motion":15.27571074,"eccentricity":0.0001448,"inclination_deg":43.0045,"raan_deg":57.2744,"arg_perigee_deg":274.1939,"mean_anomaly_deg":85.8747,"bstar":1.6323e-5,"rev_number":14404,"period_min":94.267299539085,"perigee_km":482.08232020802,"apogee_km":484.0693274418,"semimajor_km":6861.2128238249,"source":"CELESTRAK","updated_at":"2026-05-25T13:38:18.532268Z"}}}